SCP
0 0 0 0 0 0 0 0 0 0 0 0 0 0 0 0 0 0 0 0 0 0 0 0 0 0 0 0 0 0 0 0 0 0 0 0 0 0 0 0 0 0 0
0 0 0 0 0 0 0 0 0 0 0 0 0 0 0 0 0 0 0 0 0 0 0 0 0 0 0 0 0 0 0 0 0 0 0 0 0 0 0 0 0 0 0
0 0 0 0 0 0 0 0 0 0 0 0 0 0 0 0 0 0 0 0 0 0 0 0 0 0 0 0 0 0 0 0 0 0 0 0 0 0 0 0 0 0 0
0 0 0 0 0 0 0 0 0 0 0 0 0 0 0 1 1 0 0 0 0 0 0 0 0 0 1 1 0 0 0 0 0 0 0 0 0 0 0 0 0 0 0
0 0 0 0 0 0 0 0 0 0 0 0 0 0 0 0 0 1 0 0 0 0 0 0 0 1 1 1 0 0 0 0 0 0 0 0 0 0 0 0 0 0 0
0 0 0 0 0 0 0 0 0 0 0 0 0 0 0 0 0 0 0 0 0 0 0 0 1 1 0 0 0 0 0 0 0 0 0 0 0 0 0 0 0 0 0
0 0 0 0 0 0 0 0 0 0 0 0 0 0 0 0 0 0 0 0 0 0 0 0 0 0 0 0 0 0 0 0 0 0 0 0 0 0 0 0 0 0 0
0 0 0 0 0 0 0 0 0 0 0 0 0 0 0 0 0 0 0 0 0 0 0 0 0 0 0 0 0 0 0 0 0 0 0 0 0 0 0 0 0 0 0
1 1 1 0 0 0 0 0 0 0 0 0 0 0 0 0 0 0 0 0 0 0 0 0 0 0 0 0 0 0 0 0 0 0 0 0 0 0 0 0 0 0 0
1 1 1 0 0 0 0 0 0 0 0 0 0 0 0 0 0 0 0 0 0 0 0 0 0 0 0 0 0 0 0 0 0 0 0 0 0 0 0 0 0 0 0
1 1 1 0 0 0 0 0 0 0 0 0 0 0 0 0 0 0 0 0 0 0 0 0 0 0 0 0 0 0 0 0 0 0 0 0 0 0 0 0 0 0 0
1 1 1 1 0 0 0 0 0 0 0 0 0 0 0 0 0 0 0 0 0 0 0 0 0 0 0 0 0 0 0 0 0 0 0 0 0 0 0 0 1 1 1
0 1 1 1 1 0 0 0 0 0 0 0 0 0 0 0 0 0 0 0 0 0 0 0 0 0 0 0 0 0 0 0 0 0 0 0 0 0 0 0 1 1 1
0 0 1 1 1 0 0 0 0 0 0 0 1 1 1 1 0 0 0 0 0 0 0 0 0 0 0 0 0 0 0 0 0 0 0 0 0 0 0 0 1 1 1
0 0 1 1 1 1 0 0 0 0 0 0 0 1 1 1 1 0 0 0 0 0 0 0 0 0 0 0 0 0 0 0 0 0 0 0 0 0 0 0 0 1 1
0 0 0 1 1 0 0 0 0 0 0 0 0 0 1 1 1 0 0 0 0 0 0 0 0 0 0 0 0 0 0 0 0 0 0 0 0 0 0 0 0 0 0
0 0 0 0 0 0 0 0 0 0 0 0 0 0 0 0 0 0 0 0 0 0 0 0 0 0 0 0 0 0 0 0 0 0 0 0 0 0 0 0 0 0 0
0 0 0 0 0 0 0 0 0 0 0 0 0 0 0 0 0 0 0 0 0 0 0 0 0 0 0 0 0 0 0 0 0 0 0 0 0 0 0 0 0 0 0
0 0 0 0 0 0 0 0 0 0 0 0 0 0 0 0 0 0 0 0 0 0 0 0 0 0 0 0 0 0 0 0 0 0 0 0 0 0 0 0 0 0 0
0 0 0 0 0 0 0 0 0 0 0 0 0 0 0 0 0 0 0 0 0 0 0 0 0 0 0 0 0 0 0 0 0 0 0 0 0 0 0 0 0 0 0
0 0 0 0 0 0 0 0 0 0 0 0 0 0 0 0 0 0 0 0 0 0 0 0 0 0 0 0 0 0 0 0 0 0 0 0 0 0 0 0 0 0 0
0 0 0 0 0 0 0 0 0 0 0 0 0 0 0 0 0 0 0 0 0 0 0 0 0 0 0 0 0 0 0 0 0 0 0 0 0 0 0 0 0 0 0
0 0 0 0 0 0 0 0 0 0 0 0 0 0 0 0 0 0 0 0 0 0 0 0 0 0 0 0 0 0 0 0 0 0 0 0 0 0 0 0 0 0 0
0 0 0 0 0 0 0 0 0 0 0 0 0 0 0 0 0 0 0 0 0 0 0 0 0 0 0 0 0 0 0 0 0 0 0 0 0 0 0 0 0 0 0
0 0 0 0 0 0 0 0 0 0 0 0 0 0 0 0 0 0 0 0 0 0 0 0 0 0 0 0 0 0 0 0 0 0 0 0 0 0 0 0 0 0 0
0 0 0 0 0 0 0 0 0 0 0 0 0 0 0 0 0 0 0 0 0 0 0 0 0 0 0 0 0 0 0 0 0 0 0 0 0 0 0 0 0 0 0
Wind_Speed
5 6 5 7 8 10 10 10 10 10 10 10 10 10 11 11 11 11 11 11 11 11 11 11 11 12 12 12 12 12 11 11 11 10 9 9 9 9 9 9 9 6 10
7 8 6 7 9 10 11 10 10 10 10 10 10 10 11 11 11 11 11 11 11 11 11 11 11 11 11 11 11 10 10 9 8 7 6 5 7 9 9 9 8 6 8
8 8 7 7 9 10 11 10 10 10 10 10 10 10 11 11 11 11 11 10 10 10 11 11 10 10 10 10 9 9 8 7 6 6 5 2 5 9 9 9 8 7 7
8 8 8 8 9 10 10 10 10 10 10 11 10 10 11 11 11 10 10 10 10 10 10 10 10 10 9 9 9 8 7 7 7 7 3 3 4 8 8 7 7 7 7
8 8 9 9 9 10 10 10 10 9 10 10 10 10 10 10 10 10 10 10 10 9 9 9 9 9 8 8 8 7 7 7 7 5 3 3 4 6 6 6 6 6 6
8 8 8 10 10 10 9 9 9 9 9 9 9 10 11 11 10 10 10 10 10 9 9 9 8 8 7 7 7 6 7 7 7 3 3 4 4 5 5 6 6 6 6
8 8 7 10 10 9 9 9 9 9 9 9 9 10 10 10 10 10 9 9 9 9 8 8 8 8 7 7 6 6 7 8 5 3 3 3 4 6 5 6 6 6 6
7 7 7 9 9 9 9 9 9 9 9 9 9 9 9 9 9 9 9 9 8 8 8 8 7 7 7 6 6 6 7 7 5 4 3 3 5 5 5 5 5 5 5
7 6 5 5 6 8 9 9 9 9 9 8 9 8 8 7 8 8 8 8 8 8 7 7 6 6 6 5 5 6 6 6 4 3 4 3 5 5 5 5 5 5 5
7 6 5 5 4 4 5 7 8 9 9 8 8 7 6 6 6 6 6 7 7 7 6 6 5 5 4 5 5 5 6 5 3 3 3 3 5 5 5 5 5 5 5
7 6 5 5 5 4 3 5 5 6 7 6 5 5 4 2 2 3 5 6 6 6 6 6 5 4 3 3 4 4 4 2 2 2 3 5 5 5 5 5 5 6 5
5 5 5 5 5 4 4 3 2 3 3 3 2 2 1 2 2 3 4 4 5 5 5 5 5 4 3 1 2 3 1 2 2 2 4 7 6 5 6 6 6 6 7
5 5 5 5 5 5 3 3 2 2 2 2 3 3 2 2 2 2 1 2 2 2 2 3 3 3 2 2 2 2 2 2 2 2 4 7 7 6 6 6 6 7 7
5 5 5 5 4 4 4 3 3 2 2 3 3 4 3 2 2 2 2 2 2 2 2 2 2 3 3 3 3 3 3 2 2 1 3 7 7 6 7 7 7 7 7
5 5 5 4 4 4 3 3 3 3 3 3 3 3 4 3 3 2 2 2 3 3 3 3 3 3 3 3 3 3 3 3 2 1 1 4 6 6 7 8 8 8 8
4 4 4 4 5 4 3 3 3 2 2 2 3 4 4 3 3 2 2 2 3 3 3 3 4 3 2 2 2 3 3 2 2 2 1 2 4 5 6 7 8 8 9
3 3 4 4 4 4 4 4 3 3 3 2 3 3 4 3 3 2 2 2 2 2 3 3 4 3 3 3 3 3 2 2 2 2 2 1 1 3 5 6 7 8 9
3 3 3 3 4 4 4 3 2 2 3 3 3 3 4 4 3 2 2 2 3 2 2 2 3 3 3 3 3 3 2 2 2 2 1 2 1 2 3 5 6 8 9
3 3 3 3 3 3 3 2 2 2 3 2 3 3 3 4 4 3 2 2 3 2 2 3 3 3 3 3 3 3 2 2 2 2 2 2 2 2 2 4 6 7 9
3 3 3 3 3 2 2 2 2 2 2 3 3 4 4 4 4 4 2 3 3 2 3 3 3 3 3 3 4 3 3 3 2 1 2 2 2 3 3 3 3 4 8
3 3 3 2 3 3 2 2 2 2 2 3 3 4 4 4 4 4 3 3 3 3 3 3 3 3 4 4 3 3 3 2 1 1 2 2 2 3 3 3 2 2 3
3 2 2 2 2 2 2 1 1 1 1 2 2 3 4 4 4 4 4 3 3 3 4 4 4 2 3 4 3 3 3 2 2 2 1 1 2 3 4 4 3 3 3
2 2 2 2 2 2 2 1 1 1 1 2 2 3 4 4 5 4 4 3 3 3 3 4 4 4 3 3 3 2 2 3 4 2 1 1 2 3 3 3 3 4 4
2 2 2 2 2 2 2 2 2 2 2 2 2 2 3 4 5 5 5 4 3 3 3 4 4 3 3 3 2 2 1 2 3 4 3 2 3 2 2 3 4 4 4
2 2 2 2 2 3 3 2 2 2 2 2 2 3 3 3 4 5 5 4 3 3 3 4 4 4 3 3 2 3 3 2 2 3 5 4 3 2 2 2 3 3 4
2 2 2 2 3 3 2 2 2 2 2 2 2 2 2 2 3 5 5 4 3 3 3 3 3 3 3 3 3 2 3 2 3 3 5 5 5 3 3 2 2 2 3
Wind_Direction
93 101 84 88 91 87 85 85 84 82 82 80 81 81 79 74 70 68 68 66 66 67 68 66 63 60 58 59 57 55 52 48 45 44 45 48 53 53 52 47 44 48 51
103 104 87 84 88 86 84 83 83 82 83 82 81 81 78 74 71 69 66 65 65 65 65 64 63 61 58 58 56 54 53 47 36 26 23 37 58 57 53 49 46 45 47
96 103 95 82 88 86 83 82 80 79 80 82 80 77 76 74 72 70 67 66 64 62 63 61 60 59 58 57 55 52 46 36 18 359 348 24 73 59 54 48 44 40 41
91 96 92 83 86 85 83 80 81 78 76 76 76 75 75 75 72 69 66 64 62 61 61 60 59 57 57 55 51 46 36 19 358 340 346 42 59 59 51 47 39 33 35
84 84 81 74 80 83 83 81 79 78 75 75 73 71 72 72 69 65 62 61 59 58 58 58 58 55 56 51 45 36 22 4 346 330 353 38 55 54 43 39 34 34 32
84 83 77 68 70 72 76 77 75 74 73 72 71 70 68 65 62 60 58 57 53 52 54 55 52 52 51 44 36 24 8 354 338 335 21 40 51 49 39 35 35 36 30
84 85 83 68 65 65 66 67 70 70 68 68 67 67 65 62 60 59 55 54 52 50 50 50 48 45 43 37 29 15 0 346 327 353 27 41 47 44 37 39 35 29 25
82 87 88 72 68 64 62 62 62 62 65 65 66 66 65 63 61 58 53 50 50 48 45 45 43 39 33 29 22 7 351 340 344 3 33 42 38 39 37 38 29 23 20
71 72 78 84 76 66 63 60 58 56 56 61 64 61 61 62 63 60 52 46 45 44 42 39 36 33 26 20 11 353 342 342 341 359 23 30 35 39 33 35 27 19 17
67 62 58 60 68 74 72 62 59 57 53 58 58 53 52 57 62 61 51 43 40 37 34 31 27 25 18 12 1 346 336 339 351 16 17 14 32 33 28 23 14 7 5
63 55 48 46 44 46 63 69 64 61 53 56 56 50 57 54 58 63 54 45 36 31 23 18 11 4 6 355 339 330 335 354 9 17 18 16 35 33 26 19 14 10 2
63 53 43 40 38 37 41 60 57 69 64 55 45 40 28 27 38 48 59 47 32 20 11 7 359 348 338 320 323 327 340 3 10 17 22 23 33 27 19 14 9 7 5
69 57 44 36 37 35 28 29 30 36 38 48 33 18 27 34 37 47 49 33 13 3 355 351 346 346 346 350 354 352 354 6 23 28 24 23 23 17 12 6 2 360 359
58 52 44 36 37 33 29 30 29 27 26 31 25 21 20 20 20 23 28 16 8 359 350 350 345 345 352 357 356 359 4 7 19 40 32 27 20 12 5 357 354 356 354
58 47 43 36 35 29 30 28 36 29 29 31 26 21 21 16 18 22 32 22 13 2 354 345 348 348 349 353 355 0 359 5 10 32 39 33 23 13 1 356 353 352 353
58 49 40 38 35 31 28 28 32 27 27 30 30 21 18 18 19 24 26 24 14 360 349 343 348 344 342 345 347 349 347 351 357 353 3 35 21 9 358 351 349 349 349
74 59 48 37 38 34 26 24 30 24 26 27 25 20 15 17 16 18 26 18 8 354 348 343 345 347 344 346 346 347 345 345 341 348 347 358 352 0 359 348 349 349 348
100 77 62 39 41 41 32 21 24 28 29 27 23 16 16 13 9 15 19 12 3 357 355 347 348 348 345 341 338 332 336 330 319 332 346 354 355 0 355 357 352 352 347
102 91 78 55 40 42 37 25 27 29 32 30 29 22 15 15 6 2 10 5 3 2 356 353 354 345 339 337 328 325 323 313 314 327 346 355 359 359 5 358 354 352 345
84 82 72 61 39 39 46 32 29 34 28 31 30 20 13 13 11 356 0 0 3 4 356 357 353 346 340 331 321 315 297 283 289 330 354 -0 352 358 11 4 356 347 344
74 76 73 57 38 33 30 24 19 15 18 30 26 27 19 19 15 7 5 4 4 4 356 354 351 347 347 342 330 318 295 275 281 16 4 5 5 4 360 356 2 355 336
74 60 68 56 43 33 22 1 19 17 29 33 18 25 22 22 19 11 7 7 3 360 2 358 355 345 350 2 344 325 326 325 359 344 355 11 5 1 357 354 350 352 342
81 64 51 53 43 32 25 25 27 36 35 21 10 16 16 19 19 16 6 8 6 4 1 357 359 352 341 351 4 357 341 316 323 309 355 360 5 355 341 336 337 344 338
104 88 76 55 41 35 39 44 41 38 17 2 5 13 13 20 21 19 13 11 9 9 6 359 3 348 343 339 342 346 315 317 316 312 318 346 344 333 332 337 337 337 345
111 98 90 86 62 45 40 50 55 45 29 27 26 24 16 18 26 21 15 11 12 15 14 9 2 358 351 347 342 330 320 319 297 292 299 312 317 312 322 323 326 337 344
94 87 83 83 69 54 47 44 53 53 43 34 20 20 13 14 19 20 13 12 10 13 8 5 359 359 352 353 347 345 335 326 318 306 299 307 305 304 312 315 326 335 332